Regional Weather Roundup
Issued by NWS

Home | Current Version | Previous Version | Graphics & Text | Print | Product List | Glossary On
Versions: 1 2 3 4 5 6 7 8 9 10 11 12 13 14 15 16 17 18 19 20 21 22 23 24 25 26 27 28 29 30 31 32 33 34 35 36 37 38 39 40 41 42 43 44 45 46 47 48 49 50
000
ASUS45 KSLC 242010
RWRUT

UTAH REGIONAL WEATHER ROUNDUP
NATIONAL WEATHER SERVICE SALT LAKE CITY UT
100 PM MST FRI FEB 24 2017

UTZ001>011-023>025-242100-

NORTHERN UTAH

CITY           SKY/WX    TMP DP  RH WIND       PRES   REMARKS
BRIGHAM CITY     N/A     28  18  66 CALM      30.10S
HILL AFB       FLURRIES  26  15  65 SW5       30.07R WCI  20
LOGAN          CLOUDY    31  21  66 NE5       30.07S WCI  26
OGDEN          CLOUDY    29  18  63 NW7       30.07S WCI  22
SALT LAKE CITY PTSUNNY   30  16  56 W5        30.10R WCI  25
TOOELE VALLEY  PTSUNNY   32  14  47 NW6       30.10S WCI  26
WENDOVER       PTSUNNY   36   5  27 W10       30.08F WCI  28
HEBER CITY     CLOUDY    27  16  63 CALM      30.00S HAZE
WEST JORDAN    CLOUDY    31  19  61 N3        30.09S

$$

UTZ011>015-024>027-242100-

CENTRAL/NORTHEAST UTAH

CITY           SKY/WX    TMP DP  RH WIND       PRES   REMARKS
PROVO AIRPORT  PTSUNNY   34  22  61 S9        30.10S WCI  27
MOAB/CANYONLAN PTSUNNY   38   3  23 NW14G20   29.97S WCI  30
DELTA          SUNNY     28  18  64 CALM      30.10F
PRICE          MOSUNNY   29  11  47 W13       29.96S WCI  19
RICHFIELD      PTSUNNY   28  14  54 CALM      30.08F
ROOSEVELT      PTSUNNY   30  25  80 E8        29.99S WCI  23
VERNAL         FLURRIES  25  18  74 VRB3      29.98S

$$

UTZ013>016-019>022-027-242100-

SOUTHERN UTAH

CITY           SKY/WX    TMP DP  RH WIND       PRES   REMARKS
BRYCE CANYON   MIX PCPN  21   3  45 NW13      29.98R WCI   9
CEDAR CITY     PTSUNNY   32   5  32 VRB3      30.04F
MILFORD        SUNNY     30  14  51 NE6       30.08F WCI  24
ST GEORGE      MOCLDY    45  11  25 SW13      30.13F
HANKSVILLE     MOSUNNY   41   1  19 W15G23    30.03S
KANAB          SUNNY     41   1  19 SW9       30.09F
BLANDING       MOSUNNY   33  13  43 W9        30.03S WCI  25

$$

REGIONAL REPORTS     COLORADO/ARIZONA

CITY           SKY/WX    TMP DP  RH WIND       PRES   REMARKS
CRAIG, CO      CLOUDY    22  12  65 W9        29.94S WCI  12
GRAND JUNCTION PTSUNNY   37   9  31 NW12G21   29.94F WCI  29
RIFLE, CO      PTSUNNY   33  20  58 NW16G23   29.91F WCI  23
MONTROSE, CO   LGT SNOW  28  19  69 SW7       29.96S WCI  21
CORTEZ, CO     CLOUDY    33  15  47 N16G25    29.95S WCI  23
COLORADO CITY    N/A     39   5  24 W14       30.11S WCI  31
PAGE, AZ       SUNNY     43  -9  11 NW18G26   30.03F
GRAND CANYON   SUNNY     31   4  31 VRB7G20   30.03F WCI  24
KINGMAN, AZ    SUNNY     46 -17   6 CALM      30.13F
FLAGSTAFF, AZ  SUNNY     34   2  25 W14G20    30.03S WCI  25

$$

REGIONAL REPORTS    NEVADA/IDAHO/WYOMING

CITY           SKY/WX    TMP DP  RH WIND       PRES   REMARKS
LAS VEGAS, NV  MOSUNNY   50   9  19 N3        30.15F
ELY, NY        CLOUDY    23   7  50 E6        30.05S WCI  16
ELKO, NV       PTSUNNY   27   8  44 W7G17     30.09S WCI  19
POCATELLO, ID  CLOUDY    22  17  81 SW21      30.07S WCI   6
BURLEY, ID     FLURRIES  29  14  53 W24G31    30.07S WCI  15
FORT BRIDGER,  CLOUDY    22  12  67 W14       29.96S WCI   9
EVANSTON, WY   CLOUDY    18   8  65 W16       29.93S WCI   3
ROCK SPRINGS,  CLOUDY    18  11  74 W18       29.90F WCI   2

$$



USA.gov is the U.S. government's official web portal to all federal, state and local government web resources and services.